STARLINK-2298, 48022

Orbit data source: Space-Track

STARLINK-2298, 48022 is a payload satellite owned by SpaceX/Seattle (US) in LEO that was launched on Wed, 24 Mar 2021 UTC via an FALCON 9 launch vehicle from the Air Force Eastern Test Range (AFETR). Payload-class satellites include a variety of spacecraft equipped with specific instruments for various scientific and technological missions. These include communications satellites like Starlink; space stations such as the ISS; scientific satellites like the Hubble; Earth observation satellites from companies like Planet Labs, Umbra, and HawkEye 360; GPS; miniature CubeSats for education and research; and military/defense satellites.

Loading next visibility...
Identifier
48022, 2021-024AX
Orbit
LEO
Country
Flag of USUS
Related business
Manufacturer
SpaceX/Seattle
Mission
Partially operational Commercial Communications
Bus & Motor
STARLINK, Unknown motor
Mass
260 kg wet, ~248 kg dry
Launch date (UTC)
2021-03-24 (5 years ago)
Launch vehicle
FALCON 9
Launch site
Air Force Eastern Test Range (AFETR)
Object type
Payload
Rocket body
Debris
Shape & HBR
Box + 1 Pan, 10.1 m
Radar Cross Section
13.562 m², Large (>1 m²)

Expand to show TLE details & history
Last TLE update: 23 hours ago

TLE from 23 hours ago
0 STARLINK-2298
1 48022U 21024AX  26174.76972685  .00056874  00000-0  89749-3 0  9995
2 48022  53.1214 188.4177 0006331   5.0621 355.0452 15.52975547291014
Epoch: 2026-06-23T18:28Z
TLE epoch observation values (Epoch: 2026-06-23T18:28:24.399Z)
Latitude
-0.00005°
Longitude
-0.62053°
Altitude
404.668 km
Speed
7.671 km/s
True Right ascension
12h 33m 40s
True Declination
0° 00' 00"
Sunlit
Object was in daylight at epoch
Visualization orbit readout
Latitude
Unknown
Longitude
Unknown
Altitude
Unknown
Speed
Unknown
Apparent Right ascension
Unknown
Apparent Declination
Unknown
Sunlit
N/A
Visualization observer readout
Local Sidereal Time
05:00:28
Azimuth
Unknown
Elevation
Unknown
Doppler factor
Unknown
Orbital elements
Apogee altitude
412.606 km
Perigee altitude
404.013 km
Semi-major axis
6,786.446 km
Eccentricity
0.00063
Inclination
53.1214°
RAAN
188.4177°
Arg. of periapsis
5.0621°
True anomaly
355.03893°
Mean anomaly
355.0452°
Eccentric anomaly
355.04207°
Mean motion
3.88221 °/min
Orbital period
92.73 mins
BSTAR
0.00089749
Loading maneuver chart data...
Computing Atmospheric mass density...

Documentation

Showing up to 5 results
|